Regional & State Weather Roundups


259 
ASUS46 KLOX 161813
RWRCA 
SOUTHERN CALIFORNIA WEATHER ROUNDUP
NATIONAL WEATHER SERVICE OXNARD CALIFORNIA
1000 AM PST SAT DEC 16 2017
NOTE: "FAIR" INDICATES FEW OR NO CLOUDS BELOW 12,000 FEET WITH NO 
SIGNIFICANT WEATHER AND/OR OBSTRUCTIONS TO VISIBILITY.
  -  STATIONS PRECEEDED BY AN ASTERISK (*) ARE NOT NWS OR FAA 
     STATIONS AND ARE NOT SUBJECT TO NWS AND FAA QUALITY CONTROL.
CAZ041-042-087-161900-
LA AND ORANGE COUNTY COASTAL AREAS
  
CITY           SKY/WX    TMP DP  RH WIND       PRES   REMARKS
L.A. DOWNTOWN  SUNNY     62  47  57 VRB6      29.72S                  
L.A. AIRPORT   MOSUNNY   63  50  62 E6        29.72F                  
LONG BEACH     SUNNY     63  50  62 E10       29.72F                  
CITY           SKY/WX    TMP DP  RH WIND       PRES   REMARKS
FULLERTON      SUNNY     64  50  60 SE7       29.71F                  
*GETTY CENTER    N/A     61  32  33 E3G9        N/A                   
HAWTHORNE      SUNNY     62  50  64 VRB7      29.72F                  
*LEO CARRILLO    N/A     64  52  64 CALM        N/A                   
*LOS ALAMITOS  SUNNY     63  51  63 SE12      29.71F                  
*REDONDO BEACH   N/A     62  51  67 N2        29.70F                  
SANTA ANA      MOSUNNY   63  51  65 SE9       29.72S                  
STA MONICA APT SUNNY     63  48  58 E7G17     29.73S                  
*STA MON PIER    N/A     62  50  64 N10       29.69F                  
TORRANCE       PTSUNNY   61  52  72 NE8       29.72S                  
*UCLA            N/A     63  41  45 E5        29.69F                  
$$
CAZ547-548-048-161900-
LA COUNTY VALLEYS AND INLAND EMPIRE
  
CITY           SKY/WX    TMP DP  RH WIND       PRES   REMARKS
BURBANK        SUNNY     60  38  43 S5        29.72F                  
VAN NUYS       MOSUNNY   64  30  27 NE9       29.72S                  
CITY           SKY/WX    TMP DP  RH WIND       PRES   REMARKS
CORONA AIRPORT CLEAR     61  34  36 E12       29.75F                  
*CHATSWORTH      N/A     64  33  32 N1        29.70S                  
CHINO          MOSUNNY   60  28  29 E8        29.75F                  
*CLAREMONT       N/A     60  16  18 E7          N/A                   
MARCH AFB      SUNNY     58  27  31 E10       29.75F                  
*NORTHRIDGE      N/A     64  25  22 N3G9        N/A                   
ONTARIO        MOSUNNY   61  20  20 E10       29.73F                  
*PASADENA        N/A     61  45  55 E3          N/A                   
POMONA         SUNNY     59  32  36 SE10      29.75F                  
RIVERSIDE      MOSUNNY   59  23  25 E7        29.74F                  
SAN BERNARDINO PTSUNNY  N/A N/A N/A CALM      29.76F                  
*SAN RAFAEL HI   N/A     60  29  31 E3          N/A                   
*SAUGUS          N/A     60  20  21 CALM        N/A                   
*WHITEMAN AP   NOT AVBL                                               
*WHITTIER HILL   N/A     63  42  47 SE7         N/A                   
*WOODLAND HILL   N/A     64  28  25 NE5         N/A                   
$$
CAZ054-055-161900-
LA AND SAN BERNARDINO COUNTY MOUNTAINS
  
CITY           SKY/WX    TMP DP  RH WIND       PRES   REMARKS
*ACTON           N/A     56  25  30 NE10        N/A                   
*BIG BEAR AIRP MOCLDY    36  28  75 CALM      29.82F                  
*BIG PINES       N/A     43  15  32 CALM        N/A                   
*CHILAO          N/A     48  10  21 CALM        N/A                   
SANDBERG       SUNNY     41  32  70 N21G37    29.81S WCI  32          
*WARM SPRINGS    N/A     48  27  44 N14         N/A                   
$$
CAZ028-029-059-060-099-161900-
ANTELOPE VALLEY AND SURROUNDING AREAS
  
CITY           SKY/WX    TMP DP  RH WIND       PRES   REMARKS
LANCASTER      CLOUDY    53  31  42 W17       29.78S                  
PALMDALE       CLOUDY    54  30  40 NW15G29   29.79R                  
*POPPY PARK      N/A     50  31  48 W20G35      N/A                   
CITY           SKY/WX    TMP DP  RH WIND       PRES   REMARKS
29 PALMS       LGT RAIN  51   9  18 CALM      29.85R                  
BARSTOW/DAGGET CLOUDY    55  20  25 SW8       29.76R                  
BISHOP         CLOUDY    46  26  45 N24G36    29.92R                  
CHINA LAKE     SUNNY     56  10  16 CALM      29.77F                  
EDWARDS AFB    MOSUNNY   48  25  40 S5        29.76R                  
MOJAVE         SUNNY     57  25  28 W9        29.77S                  
NEEDLES        SUNNY     58  11  15 VRB3      29.77F                  
$$
CAZ039-040-161900-
VENTURA AND SANTA BARBARA COUNTY COAST
  
CITY           SKY/WX    TMP DP  RH WIND       PRES   REMARKS
CAMARILLO      SUNNY     61  51  70 CALM      29.72S                  
OXNARD AIRPORT SUNNY     61  48  62 NE6       29.72S                  
*POINT MUGU    MOSUNNY   62  51  67 CALM      29.73S                  
SBA APT/GOLETA SUNNY     66  34  30 CALM      29.72S                  
*SANTA BARBARA   N/A     63  31  30 CALM      29.80R                  
*VENTURA         N/A     59  50  73 CALM      29.68S                  
$$
CAZ044-045-161900-
VENTURA COUNTY VALLEYS
  
CITY           SKY/WX    TMP DP  RH WIND       PRES   REMARKS
*SIMI VALLEY     N/A     62  34  34 NE12      29.68R                  
*WESTLAKE VILL   N/A     61  34  37 NE1       29.70S                  
*OJAI            N/A     56  34  43 CALM      29.68F                  
*FILLMORE        N/A     62  35  36 SW1       29.75S                  
$$
CAZ053-161900-
VENTURA COUNTY MOUNTAINS
  
CITY           SKY/WX    TMP DP  RH WIND       PRES   REMARKS
*LOCKWOOD VLY    N/A     43  25  49 E2          N/A                   
*FRAZIER MTN     N/A     31  13  47 N7        29.58R WCI  24          
*ROSE VALLEY     N/A     52  28  40 E10G24      N/A                   
$$
CAZ034-035-036-161900-
CENTRAL COAST AND SANTA YNEZ VALLEY
  
CITY           SKY/WX    TMP DP  RH WIND       PRES   REMARKS
SAN LUIS OBISP SUNNY     60  39  45 N16       29.85S                  
SANTA MARIA    SUNNY     61  39  44 N13       29.84R                  
CITY           SKY/WX    TMP DP  RH WIND       PRES   REMARKS
*PISMO BEACH     N/A     61  43  52 W5        29.85R                  
*SANTA YNEZ    FAIR      61  34  36 NW8       29.77R                  
$$
CAZ037-038-051-161900-
SAN LUIS OBISPO COUNTY INTERIOR AND CUYAMA VALLEY
  
CITY           SKY/WX    TMP DP  RH WIND       PRES   REMARKS
PASO ROBLES    SUNNY     51  38  60 SE3       29.86F                  
$$
CAZ032-033-061-161900-
SOUTHERN DESERTS
  
CITY           SKY/WX    TMP DP  RH WIND       PRES   REMARKS
BLYTHE         MOSUNNY   53  23  31 SE8       29.74F                  
IMPERIAL       CLOUDY    57  28  33 E6        29.72F                  
PALM SPRINGS   CLOUDY    57  28  33 SW8       29.77S                  
THERMAL        CLOUDY    54  38  54 CALM      29.74R                  
$$
ELSEWHERE ACROSS THE WESTERN UNITED STATES AND MEXICO
  
CITY           SKY/WX    TMP DP  RH WIND       PRES   REMARKS
DEATH VALLEY,    N/A     60  24  24 CALM        N/A                   
DENVER, CO     CLOUDY    48   8  19 NE14      29.85R                  
GRAND CANYON,  CLOUDY    44   2  17 SW13      29.85F                  
HONOLULU, HI   MOSUNNY   68  61  77 N5        29.85R                  
KAHULUI, MAUI  MOSUNNY   66  64  94 S8        29.85                   
LAKE TAHOE, CA PTSUNNY   29  19  66 N9        30.01R WCI  20          
LAS VEGAS, NV  CLOUDY    51  18  27 CALM      29.79S                  
MAMMOTH LAKES, CLOUDY    32  22  65 NW13G21   29.97R WCI  23          
MEXICO CITY, M CLOUDY    68  39  34 S9        30.29F                  
PHOENIX, AZ    CLOUDY    55  24  30 SE8       29.80S                  
PORTLAND, OR   CLOUDY    42  39  89 SE7       30.39R                  
RENO, NV       PTSUNNY   35  20  54 N13       30.13R WCI  26          
SALT LAKE CITY LGT SNOW  33  31  92 NW10      29.91S VSB 1   WCI  25  
SAN DIEGO, CA  PTSUNNY   61  55  81 S12       29.76F                  
SAN FRANCISCO, MOSUNNY   59  29  31 N24G30    29.97F                  
SAN JOSE, CA   MOSUNNY   59  30  33 W15G24    29.96S                  
SEATTLE, WA    CLOUDY    41  37  86 SE8       30.34R                  
TIJUANA, MEX   PTSUNNY   59  50  72 CALM      29.80                   
$$
  
STATION/POSITION TIME  TEMP    WIND        PRES    VSBY  WAVE
                       AIR SEA DIR/SP/G                  HT/PER
                 (UTC) (F)     (DEG/KT/KT) (MB)    (MI)  (FT/S)
POINT ARGUELLO B NOT AVBL
WEST SANTA BARBA 1750   59 58  320/ 23/ 31 1007.8R        11/ 9
POINT CONCEPTION NOT AVBL
EAST SANTA BARBA 1750   59 60  210/  2/  2 1007.6R         5/12
SANTA MONICA BAY 1750      62   60/ 10/ 14 1005.9R         5/15